EW8073 Weather Reports


time (UTC)temp
C
wind
direction
speed
KPH
gust
KPH
rain 1hr
cm
rain 24hr
cm
rain mn
cm
humidity
%
barometer
mb
20260902093732 16 329 0.0 0.0 0.00 0.00 0.00 63 1016.8
20260902093233 16 329 0.0 0.0 0.00 0.00 0.00 62 1016.8
20260902092725 17 329 0.0 0.0 0.00 0.00 0.00 62 1016.9
20260902092221 17 329 0.0 0.0 0.00 0.00 0.00 62 1016.8
20260902091714 17 329 0.0 0.0 0.00 0.00 0.00 62 1016.9
20260902091209 17 329 0.0 0.0 0.00 0.00 0.00 62 1016.9
20260902090704 17 329 0.0 0.0 0.00 0.00 0.00 61 1016.8
20260902090157 17 329 0.0 0.0 0.00 0.00 0.00 61 1016.8
20260902085652 17 329 0.0 0.0 0.00 0.00 0.00 60 1016.6
20260902084640 17 329 0.0 0.0 0.00 0.00 0.00 60 1016.6
20260902084133 17 329 0.0 0.0 0.00 0.00 0.00 60 1016.6
20260902083121 17 329 0.0 0.0 0.00 0.00 0.00 60 1016.6
20260902082615 17 329 0.0 0.0 0.00 0.00 0.00 59 1016.6
20260902082110 17 329 0.0 0.0 0.00 0.00 0.00 59 1016.6
20260902081605 18 329 0.0 0.0 0.00 0.00 0.00 59 1016.6
20260902081058 18 329 0.0 0.0 0.00 0.00 0.00 59 1016.6
20260902080552 18 329 0.0 0.0 0.00 0.00 0.00 59 1016.7
20260902080045 18 329 0.0 0.0 0.00 0.00 0.00 59 1016.7
20260902075035 18 329 0.0 0.0 0.00 0.00 0.00 59 1016.8
20260902074528 18 329 0.0 0.0 0.00 0.00 0.00 59 1016.8
20260902074022 18 329 0.0 0.0 0.00 0.00 0.00 59 1016.8
20260902073515 18 329 0.0 0.0 0.00 0.00 0.00 59 1016.8
20260902073010 18 329 0.0 0.0 0.00 0.00 0.00 59 1016.8
20260902072503 18 329 0.0 0.0 0.00 0.00 0.00 58 1016.7
20260902071959 19 329 0.0 0.0 0.00 0.00 0.00 58 1016.6
20260902070946 19 329 0.0 0.0 0.00 0.00 0.00 57 1016.5
20260902070439 19 329 0.0 0.0 0.00 0.00 0.00 57 1016.4
20260902065939 19 329 0.0 0.0 0.00 0.00 0.00 57 1016.4
20260902064437 19 328 0.0 0.0 0.00 0.00 0.00 59 1016.4
20260902063933 19 329 0.0 0.0 0.00 0.00 0.00 59 1016.4
20260902062934 19 328 0.0 0.0 0.00 0.00 0.00 61 1016.2
20260902061929 19 338 0.0 0.0 0.00 0.00 0.00 61 1016.2
20260902061427 19 338 0.0 0.0 0.00 0.00 0.00 61 1016.1
20260902060427 19 338 0.0 0.0 0.00 0.00 0.00 61 1016.0
20260902055927 20 337 0.0 0.0 0.00 0.00 0.00 60 1016.2
20260902055426 20 13 0.0 0.0 0.00 0.00 0.00 59 1016.1
20260902054924 20 13 0.0 0.0 0.00 0.00 0.00 59 1016.1
20260902054423 20 13 0.0 0.0 0.00 0.00 0.00 59 1016.1
20260902053424 20 13 0.0 0.0 0.00 0.00 0.00 58 1016.1
20260902052923 20 13 0.0 0.0 0.00 0.00 0.00 58 1016.1
20260902052424 20 13 0.0 0.0 0.00 0.00 0.00 57 1016.1
20260902051424 20 13 0.0 0.0 0.00 0.00 0.00 57 1016.2
20260902050924 20 13 0.0 0.0 0.00 0.00 0.00 57 1016.2
20260902050424 21 13 0.0 0.0 0.00 0.00 0.00 57 1016.4
20260902045923 21 13 0.0 0.0 0.00 0.00 0.00 56 1016.4
20260902044924 21 13 0.0 0.0 0.00 0.00 0.00 56 1016.4
20260902043924 21 13 0.0 0.0 0.00 0.00 0.00 55 1016.5
20260902043417 21 13 0.0 0.0 0.00 0.00 0.00 55 1016.6
20260902042911 21 13 0.0 0.0 0.00 0.00 0.00 54 1016.7
20260902042405 21 5 0.0 0.0 0.00 0.00 0.00 54 1016.7
20260902041858 22 5 0.0 0.0 0.00 0.00 0.00 54 1016.7
20260902041354 22 5 0.0 0.0 0.00 0.00 0.00 53 1016.7
20260902040847 22 5 0.0 0.0 0.00 0.00 0.00 53 1016.7
20260902040340 22 5 0.0 0.0 0.00 0.00 0.00 53 1016.7
20260902035835 22 5 0.0 0.0 0.00 0.00 0.00 53 1016.6
20260902033811 22 5 0.0 0.0 0.00 0.03 0.00 51 1016.7
20260902033305 22 5 0.0 0.0 0.00 0.03 0.00 51 1016.7
20260902032758 23 5 0.0 0.0 0.00 0.03 0.00 50 1016.6
20260902031746 23 295 0.0 0.0 0.00 0.05 0.00 50 1016.6
20260902031241 23 295 0.0 0.0 0.00 0.08 0.00 50 1016.7
20260902030734 23 295 0.0 0.0 0.00 0.08 0.00 49 1016.7
20260902025724 24 295 0.0 0.0 0.00 0.08 0.00 48 1016.6
20260902024710 24 295 0.0 0.0 0.00 0.08 0.00 46 1016.5
20260902024205 25 295 0.0 0.0 0.00 0.08 0.00 46 1016.2
20260902023659 25 295 0.0 0.0 0.00 0.08 0.00 47 1016.1
20260902023153 25 295 0.0 0.0 0.00 0.08 0.00 46 1016.1
20260902022647 25 295 0.0 0.0 0.00 0.08 0.00 45 1016.1
20260902022142 25 295 0.0 0.0 0.00 0.08 0.00 44 1016.1
20260902021634 25 293 0.0 0.0 0.00 0.08 0.00 43 1016.1
20260902021129 26 293 0.0 0.0 0.00 0.08 0.00 42 1016.1
20260902020623 26 293 0.0 0.0 0.00 0.10 0.00 41 1016.0
20260902020117 26 293 0.0 0.0 0.00 0.15 0.00 41 1016.0
20260902015104 26 293 0.0 0.0 0.00 0.15 0.00 39 1015.8
20260902014559 26 293 0.0 0.0 0.00 0.18 0.00 38 1015.8
20260902014054 26 293 0.0 0.0 0.00 0.18 0.00 38 1015.8
20260902013547 27 293 0.0 0.0 0.00 0.18 0.00 38 1015.9
20260902013041 27 293 0.0 0.0 0.00 0.18 0.00 37 1015.7
20260902012537 27 293 0.0 0.0 0.00 0.20 0.00 37 1015.7
20260902012029 27 293 0.0 0.0 0.00 0.20 0.00 37 1015.7
20260902011523 27 293 0.0 0.0 0.00 0.20 0.00 36 1015.5
20260902011017 27 293 0.0 0.0 0.00 0.20 0.00 36 1015.5
20260902010512 28 293 0.0 0.0 0.00 0.20 0.00 35 1015.4
20260902010006 28 293 0.0 0.0 0.00 0.20 0.00 35 1015.4
20260902005459 28 293 0.0 0.0 0.00 0.20 0.00 34 1015.3
20260902004953 28 292 0.0 0.0 0.00 0.20 0.00 33 1015.4
20260902003942 29 292 0.0 0.0 0.00 0.20 0.00 32 1015.4
20260902002929 29 292 0.0 0.0 0.00 0.20 0.00 32 1015.4
20260902002422 29 292 0.0 0.0 0.00 0.20 0.00 31 1015.3
20260902001916 30 292 0.0 0.0 0.00 0.20 0.00 29 1015.3
20260902001411 30 292 0.0 0.0 0.00 0.20 0.00 29 1015.4
20260902000905 30 292 0.0 0.0 0.00 0.20 0.00 29 1015.4
20260902000359 30 292 0.0 0.0 0.00 0.20 0.00 28 1015.4
20260901235346 30 292 0.0 0.0 0.00 0.20 0.00 29 1015.4
20260901234840 30 292 0.0 0.0 0.00 0.20 0.00 29 1015.4
20260901234335 30 290 0.0 0.0 0.00 0.20 0.00 32 1015.5
20260901233830 29 290 0.0 0.0 0.00 0.20 0.00 29 1015.5
20260901233323 29 290 0.0 0.0 0.00 0.20 0.00 30 1015.5
20260901232817 30 290 0.0 0.0 0.00 0.20 0.00 28 1015.5
20260901231805 30 294 0.0 0.0 0.00 0.20 0.00 28 1015.5
20260901231259 30 294 0.0 0.0 0.00 0.20 0.00 26 1015.5
20260901230754 30 294 0.0 0.0 0.00 0.20 0.00 27 1015.5
20260901230246 30 271 0.0 0.0 0.00 0.20 0.00 30 1015.5
20260901225234 30 271 0.0 0.0 0.00 0.20 0.00 28 1015.5
20260901224731 30 271 0.0 0.0 0.00 0.20 0.00 27 1015.7
20260901224231 30 271 0.0 0.0 0.00 0.20 0.00 29 1015.7
20260901223730 30 0 0.0 0.0 0.00 0.20 0.00 28 1015.7
20260901222225 30 283 0.0 0.0 0.00 0.20 0.00 30 1015.8
20260901221723 30 275 0.0 0.0 0.00 0.20 0.00 29 1015.8
20260901221221 30 275 0.0 0.0 0.00 0.20 0.00 36 1015.8
20260901220723 30 275 0.0 0.0 0.00 0.20 0.00 33 1015.9
20260901220218 30 275 0.0 0.0 0.00 0.20 0.00 30 1015.9
20260901215717 30 275 0.0 0.0 0.00 0.20 0.00 30 1016.0
20260901215217 30 275 0.0 0.0 0.00 0.20 0.00 31 1016.0
20260901214717 30 223 0.0 0.0 0.00 0.20 0.00 29 1016.0
20260901214215 30 221 0.0 0.0 0.00 0.20 0.00 29 1016.0
20260901213211 30 219 0.0 0.0 0.00 0.20 0.00 28 1016.1
20260901212711 31 209 0.0 0.0 0.00 0.20 0.00 29 1016.1
20260901212209 31 209 0.0 0.0 0.00 0.20 0.00 31 1016.1
20260901211205 30 209 0.0 0.0 0.00 0.20 0.00 32 1016.1
20260901210704 30 210 0.0 0.0 0.00 0.20 0.00 33 1016.2
20260901210205 30 210 0.0 0.0 0.00 0.20 0.00 33 1016.4
20260901205704 28 210 0.0 0.0 0.00 0.20 0.00 35 1016.4
20260901204705 29 210 0.0 0.0 0.00 0.20 0.00 34 1016.5
20260901204204 29 209 0.0 0.0 0.00 0.20 0.00 30 1016.5
20260901203705 30 98 0.0 0.0 0.00 0.20 0.00 33 1016.6
20260901203206 30 98 0.0 0.0 0.00 0.20 0.00 32 1016.6
20260901202700 29 98 0.0 0.0 0.00 0.20 0.00 34 1016.6
20260901202200 29 91 0.0 0.0 0.00 0.20 0.00 35 1016.6
20260901200700 28 146 0.0 0.0 0.00 0.20 0.00 33 1016.9
20260901200200 29 148 0.0 0.0 0.00 0.20 0.00 32 1016.9
20260901195200 28 192 0.0 0.0 0.00 0.20 0.00 37 1017.1
20260901194700 28 192 0.0 0.0 0.00 0.20 0.00 37 1017.1
20260901194156 27 192 0.0 0.0 0.00 0.20 0.00 38 1017.1
20260901193656 27 192 0.0 0.0 0.00 0.20 0.00 39 1017.2
20260901193157 27 195 0.0 0.0 0.00 0.20 0.00 40 1017.2
20260901192654 27 195 0.0 0.0 0.00 0.20 0.00 39 1017.3
20260901192154 27 182 0.0 0.0 0.00 0.20 0.00 40 1017.3
20260901191652 26 184 0.0 0.0 0.00 0.20 0.00 40 1017.4
20260901190650 26 184 0.0 0.0 0.00 0.20 0.00 42 1017.5
20260901190149 26 184 0.0 0.0 0.00 0.20 0.00 43 1017.5
20260901185648 26 182 0.0 0.0 0.00 0.20 0.00 40 1017.8
20260901184642 26 193 0.0 3.2 0.00 0.20 0.00 46 1017.8
20260901184140 26 193 0.0 0.0 0.00 0.20 0.00 48 1017.8
20260901183640 25 186 0.0 0.0 0.00 0.20 0.00 48 1018.0
20260901183140 25 229 0.0 0.0 0.00 0.20 0.00 51 1018.0
20260901182638 25 229 0.0 0.0 0.00 0.20 0.00 49 1018.0
20260901182141 25 228 0.0 0.0 0.00 0.20 0.00 51 1018.1
20260901181635 25 228 0.0 0.0 0.00 0.20 0.00 53 1018.2
20260901181128 25 229 0.0 0.0 0.00 0.20 0.00 53 1018.3
20260901180116 24 231 0.0 0.0 0.00 0.20 0.00 55 1018.6
20260901175612 24 231 0.0 0.0 0.00 0.20 0.00 56 1018.6
20260901175105 23 225 0.0 0.0 0.00 0.20 0.00 58 1018.6
20260901174053 23 225 0.0 0.0 0.00 0.20 0.00 60 1018.7
20260901173546 23 225 0.0 0.0 0.00 0.20 0.00 63 1018.8
20260901173040 23 225 0.0 0.0 0.00 0.20 0.00 63 1018.8
20260901172028 22 235 0.0 0.0 0.00 0.20 0.00 66 1018.8
20260901171522 22 235 0.0 1.6 0.00 0.20 0.00 67 1018.9
20260901171018 22 235 0.0 1.6 0.00 0.20 0.00 67 1019.0
20260901170512 21 237 0.0 1.6 0.00 0.20 0.00 70 1019.0
20260901170005 21 237 0.0 3.2 0.00 0.20 0.00 72 1018.9
20260901165458 21 237 0.0 3.2 0.00 0.20 0.00 72 1019.0
20260901164446 20 249 0.0 1.6 0.00 0.20 0.00 76 1019.2
20260901163941 20 249 0.0 1.6 0.00 0.20 0.00 76 1019.2
20260901163435 20 249 0.0 4.8 0.00 0.20 0.00 77 1019.2
20260901162929 20 249 0.0 4.8 0.00 0.20 0.00 78 1019.2
20260901161916 20 250 0.0 0.0 0.00 0.20 0.00 79 1019.0
20260901160905 20 250 0.0 0.0 0.00 0.20 0.00 81 1019.2
20260901160359 20 250 0.0 0.0 0.00 0.20 0.00 81 1019.2
20260901155852 19 250 0.0 0.0 0.00 0.20 0.00 82 1019.2
20260901155346 19 250 0.0 1.6 0.00 0.20 0.00 82 1019.2
20260901154842 19 250 0.0 4.8 0.00 0.20 0.00 82 1019.2
20260901154334 18 250 0.0 4.8 0.00 0.20 0.00 82 1019.0
20260901153830 18 247 0.0 0.0 0.00 0.20 0.00 83 1019.2
20260901152310 18 247 0.0 0.0 0.00 0.20 0.00 84 1019.0
20260901151804 18 247 0.0 0.0 0.00 0.20 0.00 84 1018.9
20260901151258 17 247 0.0 0.0 0.00 0.20 0.00 85 1018.9
20260901150753 17 247 0.0 0.0 0.00 0.20 0.00 84 1018.9
20260901150246 17 247 0.0 0.0 0.00 0.20 0.00 84 1018.9
20260901145741 17 247 0.0 0.0 0.00 0.20 0.00 85 1018.9
20260901145234 17 247 0.0 0.0 0.00 0.20 0.00 85 1018.9
20260901144222 17 247 0.0 0.0 0.00 0.20 0.00 85 1018.9
20260901143210 17 247 0.0 1.6 0.00 0.20 0.00 85 1018.9
20260901142704 16 247 0.0 3.2 0.00 0.20 0.00 85 1018.9
20260901141653 16 246 0.0 1.6 0.00 0.20 0.00 85 1018.9
20260901141146 16 246 0.0 1.6 0.00 0.20 0.00 86 1018.9
20260901140641 16 246 0.0 0.0 0.00 0.20 0.00 86 1018.8
20260901140135 16 246 0.0 0.0 0.00 0.20 0.00 86 1018.9
20260901135629 16 246 0.0 0.0 0.00 0.20 0.00 86 1018.9
20260901135124 16 246 0.0 0.0 0.00 0.20 0.00 86 1018.7
20260901134616 16 246 0.0 0.0 0.00 0.20 0.00 86 1018.8
20260901134111 16 246 0.0 0.0 0.00 0.20 0.00 86 1018.8
20260901133604 16 246 0.0 0.0 0.00 0.20 0.00 86 1018.9
20260901133059 16 246 0.0 0.0 0.00 0.20 0.00 86 1018.8
20260901132553 16 246 0.0 0.0 0.00 0.20 0.00 86 1018.8
20260901132046 16 246 0.0 0.0 0.00 0.20 0.00 86 1018.8
20260901131540 16 246 0.0 0.0 0.00 0.20 0.00 86 1018.6
20260901131035 16 246 0.0 0.0 0.00 0.20 0.00 86 1018.5
20260901130528 16 246 0.0 0.0 0.00 0.20 0.00 86 1018.3
20260901130024 16 246 0.0 0.0 0.00 0.20 0.00 86 1018.3
20260901125516 16 246 0.0 0.0 0.00 0.20 0.00 86 1018.2
20260901125011 16 246 0.0 0.0 0.00 0.20 0.00 86 1018.1
20260901124514 16 246 0.0 0.0 0.00 0.20 0.00 86 1018.1
20260901123958 16 246 0.0 0.0 0.00 0.20 0.00 86 1018.0
20260901123454 16 246 0.0 0.0 0.00 0.20 0.00 86 1017.8
20260901122948 16 246 0.0 0.0 0.00 0.20 0.00 86 1017.8
20260901122446 16 246 0.0 0.0 0.00 0.20 0.00 86 1017.8
20260901121445 16 246 0.0 0.0 0.00 0.20 0.00 86 1017.8
20260901120941 16 246 0.0 0.0 0.00 0.20 0.00 87 1017.8
20260901115941 16 246 0.0 0.0 0.00 0.20 0.00 87 1017.9
20260901114444 16 246 0.0 0.0 0.00 0.20 0.00 87 1017.6
20260901113943 16 246 0.0 0.0 0.00 0.20 0.00 87 1017.6
20260901113444 16 246 0.0 0.0 0.00 0.20 0.00 87 1017.8
20260901112943 16 246 0.0 0.0 0.00 0.20 0.00 87 1017.8
20260901112444 16 247 0.0 3.2 0.00 0.20 0.00 87 1017.6
20260901111941 16 247 0.0 3.2 0.00 0.20 0.00 87 1017.8
20260901111443 16 246 0.0 3.2 0.00 0.20 0.00 87 1017.6
20260901110942 16 245 0.0 0.0 0.00 0.20 0.00 87 1017.8
20260901110443 16 245 0.0 0.0 0.00 0.20 0.00 87 1017.9
20260901105942 16 245 0.0 0.0 0.00 0.20 0.00 87 1017.9
20260901105443 16 245 0.0 1.6 0.00 0.20 0.00 87 1017.8
20260901104942 16 245 0.0 1.6 0.00 0.20 0.00 87 1017.9
20260901104443 16 245 0.0 1.6 0.00 0.20 0.00 87 1018.0
20260901103941 16 245 0.0 1.6 0.00 0.20 0.00 87 1018.0
20260901103443 16 249 0.0 0.0 0.00 0.20 0.00 87 1018.2
20260901102447 16 249 0.0 1.6 0.00 0.20 0.00 87 1018.5
20260901101944 16 249 0.0 0.0 0.00 0.20 0.00 87 1018.3
20260901101444 16 249 0.0 0.0 0.00 0.20 0.00 87 1018.5
20260901100944 16 249 0.0 0.0 0.00 0.20 0.00 87 1018.5
20260901100444 16 249 0.0 1.6 0.00 0.20 0.00 87 1018.6
20260901095936 16 249 0.0 1.6 0.00 0.20 0.00 87 1018.8
20260901095433 16 249 0.0 1.6 0.00 0.20 0.00 87 1018.9
20260901094931 16 249 0.0 3.2 0.00 0.20 0.00 87 1018.8
20260901094430 16 249 0.0 3.2 0.00 0.20 0.00 87 1018.8